Date String (YYYY-MM-DD hh:mm:ss) UTC,Instrument flags,Ambient pressure (hPa),Sample flow (lpm),Bypass flow (lpm),Sample temperature (°C),Ambient temperature (°C),ASC tube jacket temperature (°C),LED temperature (°C),Box temperature (°C),Sample RH (%),Span deviation,Mass concentration (μg/m³),Mass concentration (μg/m³),Mass concentration (μg/m³)
DateTimeUTC,F1_M11,P_M11,Q1_M11,Q2_M11,T1_M11,T2_M11,T3_M11,T4_M11,T5_M11,U1_M11,ZSPAN_M11,X0_M11,X2_M11,X1_M11
2022-10-14 05:00:00,,0827.6,4.99,0.00,29.0,27.2,00.0,37.9,30.8,11.8,0000.0,0012.66,0005.89,0005.21
2022-10-14 05:01:00,,0827.6,5.00,0.00,29.0,27.2,00.0,37.9,30.8,11.7,0000.0,0012.63,0005.82,0005.16
2022-10-14 05:02:00,,0827.6,5.00,0.00,29.0,27.3,00.0,37.9,30.8,11.7,0000.0,0012.50,0005.76,0005.11
2022-10-14 05:03:00,,0827.6,5.00,0.00,29.0,27.2,00.0,37.9,30.7,11.6,0000.0,0012.23,0005.69,0005.06
2022-10-14 05:04:00,,0827.6,5.00,0.00,29.0,27.2,00.0,37.9,30.7,11.7,0000.0,0012.00,0005.60,0005.01
2022-10-14 05:05:00,,0827.5,5.02,0.00,29.0,27.2,00.0,37.9,30.7,11.7,0000.0,0011.83,0005.52,0004.95
2022-10-14 05:06:00,,0827.5,5.00,0.00,29.0,27.2,00.0,37.9,30.7,11.6,0000.0,0011.72,0005.47,0004.93
2022-10-14 05:07:00,,0827.6,5.00,0.00,29.0,27.2,00.0,37.9,30.7,11.6,0000.0,0011.88,0005.45,0004.91
2022-10-14 05:08:00,,0827.5,4.99,0.00,29.0,27.2,00.0,37.9,30.7,11.6,0000.0,0010.94,0005.41,0004.88
2022-10-14 05:09:00,,0827.5,4.99,0.00,28.9,27.2,00.0,37.9,30.7,11.7,0000.0,0010.32,0005.42,0004.87
2022-10-14 05:10:00,,0827.4,5.00,0.00,28.9,27.2,00.0,37.9,30.7,11.7,0000.0,0009.57,0005.40,0004.88
2022-10-14 05:11:00,,0827.4,5.01,0.00,28.9,27.2,00.0,37.8,30.7,11.8,0000.0,0009.16,0005.35,0004.86
2022-10-14 05:12:00,,0827.4,5.00,0.00,28.9,27.2,00.0,37.8,30.7,11.8,0000.0,0009.32,0005.35,0004.86
2022-10-14 05:13:00,,0827.4,5.00,0.00,28.9,27.2,00.0,37.8,30.7,11.8,0000.0,0009.44,0005.38,0004.85
2022-10-14 05:14:00,,0827.4,5.00,0.00,28.9,27.2,00.0,37.8,30.7,11.8,0000.0,0009.50,0005.42,0004.85
2022-10-14 05:15:00,,0827.4,5.00,0.00,28.9,27.1,00.0,37.8,30.6,11.8,0000.0,0009.36,0005.40,0004.85
2022-10-14 05:16:00,,0827.4,5.00,0.00,28.9,27.1,00.0,37.8,30.6,11.9,0000.0,0009.66,0005.41,0004.85
2022-10-14 05:17:00,,0827.4,5.00,0.00,28.9,27.1,00.0,37.8,30.6,11.8,0000.0,0009.99,0005.43,0004.85
2022-10-14 05:18:00,,0827.4,5.00,0.00,28.9,27.0,00.0,37.8,30.5,11.7,0000.0,0009.86,0005.43,0004.84
2022-10-14 05:19:00,,0827.4,5.00,0.00,28.8,27.0,00.0,37.8,30.5,11.5,0000.0,0009.87,0005.41,0004.84
2022-10-14 05:20:00,,0827.4,5.00,0.00,28.8,27.0,00.0,37.8,30.6,11.5,0000.0,0009.91,0005.39,0004.82
2022-10-14 05:21:00,,0827.4,5.00,0.00,28.8,27.0,00.0,37.8,30.6,11.6,0000.0,0010.27,0005.35,0004.80
2022-10-14 05:22:00,,0827.3,5.00,0.00,28.8,27.0,00.0,37.7,30.6,11.7,0000.0,0010.14,0005.32,0004.78
2022-10-14 05:23:00,,0827.3,5.00,0.00,28.8,27.0,00.0,37.7,30.5,11.7,0000.0,0009.75,0005.30,0004.75
2022-10-14 05:24:00,,0827.3,4.99,0.00,28.8,27.0,00.0,37.7,30.6,11.7,0000.0,0009.79,0005.26,0004.73
2022-10-14 05:25:00,,0827.2,4.99,0.00,28.8,27.0,00.0,37.7,30.5,11.7,0000.0,0009.74,0005.19,0004.70
2022-10-14 05:26:00,,0827.2,4.99,0.00,28.8,27.0,00.0,37.7,30.5,11.7,0000.0,0009.96,0005.15,0004.68
2022-10-14 05:27:00,,0827.2,5.02,0.00,28.8,27.0,00.0,37.7,30.5,11.7,0000.0,0010.60,0005.14,0004.66
2022-10-14 05:28:00,,0827.2,4.99,0.00,28.8,27.0,00.0,37.7,30.5,11.6,0000.0,0010.18,0005.10,0004.64
2022-10-14 05:29:00,,0827.2,4.99,0.00,28.8,27.0,00.0,37.7,30.5,11.7,0000.0,0010.15,0005.09,0004.65
2022-10-14 05:30:00,,0827.2,5.00,0.00,28.7,27.0,00.0,37.7,30.5,11.8,0000.0,0010.64,0005.09,0004.65
2022-10-14 05:31:00,,0827.2,5.00,0.00,28.7,27.0,00.0,37.7,30.5,11.7,0000.0,0011.29,0005.11,0004.64
2022-10-14 05:32:00,,0827.2,5.01,0.00,28.7,26.9,00.0,37.6,30.5,11.5,0000.0,0010.95,0005.09,0004.62
2022-10-14 05:33:00,,0827.1,5.00,0.00,28.7,27.0,00.0,37.6,30.5,11.6,0000.0,0010.91,0005.08,0004.60
2022-10-14 05:34:00,,0827.1,5.00,0.00,28.7,27.0,00.0,37.6,30.5,11.6,0000.0,0010.86,0005.05,0004.59
2022-10-14 05:35:00,,0827.1,5.01,0.00,28.7,26.9,00.0,37.6,30.4,11.6,0000.0,0010.76,0005.03,0004.57
2022-10-14 05:36:00,,0827.1,5.00,0.00,28.7,26.9,00.0,37.6,30.4,11.6,0000.0,0010.61,0005.02,0004.55
2022-10-14 05:37:00,,0827.2,4.99,0.00,28.7,26.9,00.0,37.6,30.4,11.5,0000.0,0010.68,0005.02,0004.55
2022-10-14 05:38:00,,0827.3,4.99,0.00,28.7,26.9,00.0,37.6,30.4,11.5,0000.0,0010.23,0004.99,0004.54
2022-10-14 05:39:00,,0827.4,5.02,0.00,28.7,26.9,00.0,37.6,30.4,11.4,0000.0,0009.92,0004.97,0004.53
2022-10-14 05:40:00,,0827.3,4.99,0.00,28.7,26.9,00.0,37.6,30.4,11.4,0000.0,0009.80,0004.92,0004.50
2022-10-14 05:41:00,,0827.3,4.99,0.00,28.6,26.9,00.0,37.6,30.4,11.4,0000.0,0009.30,0004.88,0004.47
2022-10-14 05:42:00,,0827.0,5.00,0.00,28.6,26.8,00.0,37.6,30.3,11.4,0000.0,0008.55,0004.82,0004.44
2022-10-14 05:43:00,,0827.1,5.00,0.00,28.6,26.8,00.0,37.5,30.3,11.3,0000.0,0008.81,0004.80,0004.43
2022-10-14 05:44:00,,0827.0,5.00,0.00,28.6,26.8,00.0,37.5,30.4,11.4,0000.0,0008.75,0004.78,0004.41
2022-10-14 05:45:00,,0827.0,5.00,0.00,28.6,26.8,00.0,37.5,30.4,11.3,0000.0,0009.46,0004.76,0004.37
2022-10-14 05:46:00,,0827.2,5.00,0.00,28.6,26.8,00.0,37.5,30.4,11.3,0000.0,0009.76,0004.76,0004.36
2022-10-14 05:47:00,,0827.2,5.00,0.00,28.6,26.8,00.0,37.5,30.4,11.3,0000.0,0009.81,0004.74,0004.34
2022-10-14 05:48:00,,0826.9,4.99,0.00,28.6,26.8,00.0,37.5,30.3,11.3,0000.0,0009.52,0004.70,0004.31
2022-10-14 05:49:00,,0826.9,4.99,0.00,28.6,26.8,00.0,37.5,30.2,11.3,0000.0,0009.19,0004.70,0004.30
2022-10-14 05:50:00,,0826.9,5.00,0.00,28.6,26.8,00.0,37.5,30.2,11.3,0000.0,0009.14,0004.70,0004.28
2022-10-14 05:51:00,,0826.9,5.00,0.00,28.5,26.8,00.0,37.5,30.3,11.3,0000.0,0009.18,0004.73,0004.28
2022-10-14 05:52:00,,0827.2,5.01,0.00,28.5,26.8,00.0,37.5,30.3,11.4,0000.0,0009.29,0004.76,0004.30
2022-10-14 05:53:00,,0827.1,5.01,0.00,28.5,26.8,00.0,37.5,30.3,11.5,0000.0,0009.19,0004.78,0004.31
2022-10-14 05:54:00,,0827.1,5.00,0.00,28.5,26.7,00.0,37.4,30.3,11.4,0000.0,0008.91,0004.79,0004.31
2022-10-14 05:55:00,,0827.0,5.00,0.00,28.5,26.8,00.0,37.4,30.3,11.4,0000.0,0008.78,0004.77,0004.31
2022-10-14 05:56:00,,0827.0,5.00,0.00,28.5,26.7,00.0,37.4,30.3,11.4,0000.0,0007.97,0004.74,0004.30
2022-10-14 05:57:00,,0826.8,5.00,0.00,28.5,26.7,00.0,37.4,30.3,11.4,0000.0,0007.64,0004.71,0004.30
2022-10-14 05:58:00,,0826.8,5.00,0.00,28.5,26.7,00.0,37.4,30.2,11.4,0000.0,0007.54,0004.69,0004.29
2022-10-14 05:59:00,,0826.8,5.00,0.00,28.5,26.6,00.0,37.4,30.2,11.4,0000.0,0007.71,0004.70,0004.30
